Location: Mahannah Oil Field
(37.4664°N, 96.6003°W)
Time: 15:38:52
(UTC+00:00)

Vanguard 2 - Pass Details

Date: 18 June 2021
Orbit: 552 x 2937 km, 32.9° (Epoch: 26 July)

Event Time Altitude Azimuth Distance (km) Brightness Sun altitude
Rises 03:19:55 0° 268° (W) 5,009 12.3 -14.8°
Reaches altitude 10° 03:23:56 10° 265° (W) 3,614 11.5 -15.4°
Maximum altitude 03:32:15 57° 190° (S) 1,153 8.2 -16.5°
Enters shadow 03:35:20 26° 122° (ESE) 1,587 8.6 -16.9°
